Regional Weather Roundup
Issued by NWS

Home | Current Version | Previous Version | Graphics & Text | Print | Product List | Glossary On
Versions: 1 2 3 4 5 6 7 8 9 10 11 12 13 14 15 16 17 18 19 20 21 22 23 24 25 26 27 28
000
ASUS45 KCYS 251910
RWRWY

WYOMING REGIONAL WEATHER ROUNDUP
NATIONAL WEATHER SERVICE CHEYENNE WY
100 PM MDT WED APR 25 2018

NOTE:  "FAIR" INDICATES FEW OR NO CLOUDS BELOW 12,000 FEET
WITH NO SIGNIFICANT WEATHER AND/OR OBSTRUCTIONS TO VISIBILITY.

WYZ001-252000-
YELLOWSTONE NATIONAL PARK

CITY           SKY/WX    TMP DP  RH WIND       PRES   REMARKS
LK YELLOWSTONE   N/A     46  12  25 VRB6      30.26F
W YELLOWSTONE  NOT AVBL

$$
WYZ002>013-054>058-071-098>099-252000-
NORTHERN WYOMING

CITY           SKY/WX    TMP DP  RH WIND       PRES   REMARKS
JACKSON        FAIR      55  20  25 SW7       30.24F
CODY           FAIR      63  13  14 E15       30.08F
GREYBULL       FAIR      59  25  27 SE10      30.07F
WORLAND        FAIR      60  27  28 E7        30.08F
SHERIDAN       FAIR      66  34  30 NE7       30.00F
BUFFALO        FAIR      68  13  12 VRB6      30.04F
GILLETTE       FAIR      68  23  18 SW16G24   30.02F
HULETT         FAIR      61  25  25 SW17G23   30.05F
NEWCASTLE      FAIR      54  27  35 SE13G25   30.11F

$$
WYZ014>020-022>026-101>103-252000-
CENTRAL WYOMING

CITY           SKY/WX    TMP DP  RH WIND       PRES   REMARKS
BIG PINEY      FAIR      51  20  29 MISG      30.28F
PINEDALE       FAIR      52  18  25 W10G20    30.27F
DUBOIS         FAIR      55   5  13 W23G31    30.19R
LANDER         FAIR      57  21  24 VRB5      30.12F
RIVERTON       FAIR      55  22  27 VRB5      30.14F
CASPER         FAIR      61  22  22 SW22G31   30.14F
DOUGLAS        FAIR      62  25  24 S10       30.12F

$$
WYZ021-027>030-104>119-252000-
SOUTHERN WYOMING

CITY           SKY/WX    TMP DP  RH WIND       PRES   REMARKS
EVANSTON       FAIR      59  16  18 SW16      30.27F
KEMMERER       FAIR      52  18  25 SW5       30.29F
FORT BRIDGER   FAIR      53  19  26 W6        30.32F
ROCK SPRINGS   FAIR      57  12  17 SW6       30.26F
DIXON          FAIR      56  15  20 S7        30.31F
RAWLINS        FAIR      58  16  19 SW15G26   30.25F
SARATOGA       FAIR      54  16  22 NW5       30.27F
LARAMIE        FAIR      54  14  20 VRB6      30.23F
CHEYENNE       FAIR      56  25  30 VRB5      30.20F
TORRINGTON     FAIR      59  30  33 VRB6      30.14F
PINE BLUFFS    FAIR      57  27  30 SW9       30.20F

$$




USA.gov is the U.S. government's official web portal to all federal, state and local government web resources and services.